Location: Columbia
(38.9520°N, 92.3340°W)
Time: 02:37:03
(UTC-06:00)

Daily predictions for brighter satellites

Satellite Brightness Start Highest point End
(mag) Time Altitude Azimuth Time Altitude Azimuth Time Altitude Azimuth
CZ-3 R/B 4.3 03:43:59 10° SW 04:01:29 26° S 04:08:03 10° ESE
USA 215 4.1 04:07:48 10° ENE 04:13:58 43° SE 04:16:25 31° S
CENTAUR R/B 3.9 04:27:40 28° N 04:27:40 28° N 04:31:08 10° NNE
Cosmos 2369 Rocket 4.4 04:28:50 12° N 04:32:31 20° NE 04:36:37 10° E
Cosmos 1603 4.4 04:28:47 18° S 04:32:50 51° ESE 04:38:18 10° NNE
Cosmos 921 Rocket 4.4 04:34:13 37° ESE 04:34:13 37° ESE 04:37:14 10° SSE
Lacrosse 5 2.8 04:34:49 42° SE 04:35:19 44° SE 04:40:09 10° NE
Meteor 1-18 Rocket 4.2 04:47:22 64° N 04:48:23 90° W 04:54:19 10° S
Feng Yun 1-1 Rocket 4.1 04:43:56 10° NNE 04:49:33 88° ESE 04:55:00 10° SSW
COSMO-SKYMED 1 4.2 04:46:48 10° SE 04:50:39 32° ENE 04:53:19 17° NNE
Meteor 1-20 Rocket 4.0 04:48:26 10° S 04:54:01 89° W 04:59:33 10° N
NOAA 6 4.2 04:58:06 10° NNE 05:03:14 69° ESE 05:08:20 10° S
Cosmos 1300 Rocket 3.8 05:04:57 10° S 05:09:20 67° E 05:13:42 10° NNE
Tiangong 2 3.0 05:12:41 26° NE 05:12:41 26° NE 05:14:25 10° ENE
Cosmos 1943 Rocket 4.4 05:10:49 10° N 05:14:45 20° NE 05:18:40 10° E
Cosmos 1633 3.4 05:11:35 10° S 05:15:06 51° E 05:18:39 10° NNE
SL-08 ROCKET BODY 4.3 05:10:26 10° SSW 05:16:18 58° W 05:22:07 10° N
SL-16 R/B 3.8 05:22:03 18° NNW 05:22:03 18° NNW 05:23:58 10° N
Cosmos 2327 Rocket 4.5 05:13:13 10° SSW 05:19:30 61° W 05:25:46 10° N
GPS 2-05 Rocket1 4.0 05:19:59 34° S 05:19:59 34° S 05:22:58 10° SE
DELTA 2 R/B(2) 4.5 05:25:43 58° ESE 05:25:43 58° ESE 05:27:24 10° E
Cosmos 2074 Rocket 4.1 05:22:50 10° SSW 05:28:51 48° WNW 05:34:54 10° N
Cosmos 1602 3.6 05:25:02 10° S 05:28:59 87° W 05:32:57 10° N
DASH 4.4 05:27:48 14° SSW 05:29:55 24° SSE 05:35:48 10° ESE
Meteor 1-19 Rocket 4.4 05:26:20 10° N 05:32:12 75° E 05:37:57 10° SSE
Cosmos 44 3.8 05:27:06 10° SSW 05:32:26 68° ESE 05:37:38 10° NE
Cosmos 2341 Rocket 4.3 05:28:12 10° S 05:34:27 70° E 05:40:41 10° NNE
Okean 1 4.2 05:35:51 32° SW 05:35:51 32° SW 05:38:37 10° SSW
Meteor 2-13 Rocket 4.4 05:30:37 10° S 05:36:46 89° WNW 05:42:58 10° N
Cosmos 2056 Rocket 3.4 05:33:57 25° NNW 05:36:53 65° WSW 05:41:54 10° S
SKYMED 2 3.4 05:34:19 10° S 05:38:37 71° WSW 05:41:57 17° NNW
Meteor 1-11 Rocket 3.7 05:33:11 10° S 05:39:02 86° W 05:44:49 10° N
USA 129 4.4 05:39:54 10° ESE 05:41:31 19° ENE 05:42:48 13° NNE
Abrixas rocket 2.4 05:43:16 49° NW 05:43:35 51° NNW 05:46:53 10° NE
Meteor 1-28 Rocket 3.4 05:41:04 10° SSE 05:44:50 70° ENE 05:48:38 10° N
Cosmos 2184 Rocket 4.4 05:40:32 10° SW 05:46:07 36° WNW 05:51:47 10° N
Cosmos 1346 Rocket 3.6 05:47:11 30° WSW 05:47:11 30° WSW 05:50:19 10° SSW
Cosmos 1624 Rocket 4.3 05:47:20 22° NW 05:50:23 45° WSW 05:55:24 10° S
Ariane Rocket 2.9 05:45:29 10° N 05:50:33 80° WNW 05:55:36 10° SSW
DMSP B5D1-3 4.4 05:45:53 10° S 05:51:00 71° WSW 05:56:11 10° NNW
Meteor 1-13 Rocket 4.3 05:45:37 10° NNW 05:51:28 62° W 05:57:17 10° S
USA 215 3.4 05:50:42 10° NE 05:57:01 54° NW 06:03:18 10° WSW
SL-24 R/B 4.3 05:52:55 10° N 05:58:19 78° WNW 06:02:52 10° SSW
Cosmos 1340 4.1 05:55:15 10° N 05:58:50 39° ENE 06:02:23 10° SSE
Meteor 1-23 Rocket 4.3 05:53:38 10° N 05:59:13 78° E 06:04:46 10° SSE
CSL-04 Rocket 3.6 05:55:51 10° NNE 06:01:25 81° WNW 06:06:53 10° SSW
Cosmos 2154 Rocket 4.1 05:55:46 10° SSW 06:01:48 53° W 06:07:52 10° N
Okean 2 4.1 05:59:25 10° N 06:03:32 56° E 06:07:36 10° SSE
PSLV R/B 4.0 06:02:42 23° W 06:04:22 42° SSW 06:07:35 10° SE
CZ-2C R/B 3.8 05:59:52 10° NNE 06:04:48 44° E 06:09:36 10° S
CSL-04 Debris 4.2 06:00:26 10° NNE 06:05:56 86° WNW 06:11:25 10° SSW
Cosmos 1025 Rocket 2.9 06:03:00 10° N 06:07:23 77° W 06:11:43 10° S
Meteor 2-4 Rocket 3.6 06:04:21 10° NNW 06:09:51 72° W 06:15:30 10° S
YAOGAN 1 4.0 06:05:51 10° NNE 06:09:57 41° E 06:14:01 10° S
IDEFIX/ARIANE 42P 3.6 06:06:22 10° NNE 06:11:24 49° E 06:16:26 10° S
Cosmos 44 Rocket 4.1 06:10:32 10° WSW 06:15:09 32° NW 06:19:44 10° NNE
Cosmos 2369 Rocket 2.3 06:11:21 10° NNW 06:16:59 62° WSW 06:22:34 10° S
CENTAUR R/B 4.3 06:14:52 11° NW 06:17:18 13° NNW 06:20:36 10° N
Lacrosse 5 2.6 06:14:06 12° W 06:18:22 33° NW 06:23:00 10° NNE
Meteor 1-5 Rocket 4.0 06:13:05 10° S 06:18:27 83° W 06:23:47 10° N
CZ-4 R/B 1.4 06:14:57 10° NNE 06:18:53 80° E 06:22:47 10° S
Cosmos 1536 3.4 06:16:21 10° SW 06:20:00 34° WNW 06:23:41 10° NNW
Okean 1 Rocket 4.1 06:17:30 10° SW 06:21:04 24° WNW 06:24:39 10° NNW
Meteor 2-8 Rocket 4.5 06:17:45 10° N 06:23:56 83° W 06:30:06 10° S
Cosmos 1544 Rocket 3.5 06:19:44 10° S 06:24:04 90° S 06:28:29 10° N
Cosmos 1900 4.4 06:19:46 10° NNW 06:24:42 82° ENE 06:29:38 10° SSE
Cosmos 1452 Rocket 3.6 06:21:00 10° NNW 06:26:10 56° WSW 06:31:18 10° S
COSMO-SKYMED 1 3.9 06:23:38 10° SW 06:26:51 20° W 06:30:06 10° NW
SJ-12 3.9 06:25:58 10° N 06:30:09 86° WNW 06:34:18 10° SSW
SL-8 Rocket 4.0 06:26:51 10° SSW 06:33:04 67° W 06:39:17 10° N
AQUARIUS 4.2 06:30:03 10° NNE 06:34:34 87° E 06:39:03 10° SSW
IRS-1A Rocket 4.4 06:32:51 10° N 06:38:27 58° WNW 06:44:08 10° SSW
Lacrosse 4 Rocket 2.3 06:35:44 10° NNW 06:39:46 48° ENE 06:43:40 10° SE
Cosmos 1943 3.9 06:36:07 10° WSW 06:41:03 31° WNW 06:46:03 10° N
NOSS 3-1 (C) 4.2 06:38:03 10° SSW 06:43:40 57° ESE 06:49:51 10° NE
Cosmos 2366 rocket 4.0 06:38:45 10° SSW 06:45:01 75° W 06:51:23 10° N
Cosmos 839 Rocket 4.1 06:40:19 10° NNW 06:46:52 84° ENE 06:53:01 10° SSE
Cosmos 1515 4.1 06:43:21 10° N 06:47:12 68° E 06:50:59 10° SSE
Tiangong 2 1.1 06:45:07 10° WNW 06:48:16 74° NNE 06:51:24 10° ESE
Cosmos 1892 Rocket 3.9 06:45:05 10° NNW 06:49:21 46° W 06:53:37 10° SSW
Cosmos 2218 Rocket 4.2 06:45:44 10° SSW 06:52:01 58° W 06:58:19 10° N
